{"data":{"norad_id":67340,"intl_designator":"2026-003G","name":"STARLINK-36339","alt_names":[],"object_type":"PAYLOAD","status":"ACTIVE","operator":null,"country":"US","launch_date":"2026-01-09","launch_site_code":"AFETR","launch_vehicle":null,"mission":null,"orbit_class":"UNKNOWN","rcs_meters":null,"size_class":null,"mass_kg":null,"dimensions":null,"purposes":["comms"],"wikipedia_slug":null,"has_3d_model":false,"image_url":null,"decayed_at":null,"tle_current":{"epoch":"2026-09-19T13:24:14.088096Z","epoch_age_seconds":156741,"freshness":"FRESH","line1":"1 67340U 26003G   26262.55849639  .00009827  00000+0  36610-3 0  9992","line2":"2 67340  42.9997 212.1934 0001368 271.7477  88.3218 15.27585237 38474","mean_motion":15.27585237,"eccentricity":0.0001368,"inclination_deg":42.9997,"raan_deg":212.1934,"arg_perigee_deg":271.7477,"mean_anomaly_deg":88.3218,"bstar":0.0003661,"rev_number":3847,"period_min":94.26642554022,"perigee_km":482.09480650973,"apogee_km":483.97202273517,"semimajor_km":6861.1704146225,"source":"CELESTRAK","updated_at":"2026-09-20T09:00:43.512037Z"}}}